Stations météo

réclame
Mon MeteoGroup
Cordoba Aeropuerto (AWS), Espagne (8410): Température de l'air & dewpoint: 18.10.2017 07:00:00 - 24.10.2017 07:00:00 (CEST)Cordoba Aeropuerto (AWS), Espagne (8410): Vitesse du vent: 18.10.2017 07:00:00 - 24.10.2017 07:00:00 (CEST)Cordoba Aeropuerto (AWS), Espagne (8410): Direction du vent: 18.10.2017 07:00:00 - 24.10.2017 07:00:00 (CEST)Cordoba Aeropuerto (AWS), Espagne (8410): reduced air pressure: 18.10.2017 07:00:00 - 24.10.2017 07:00:00 (CEST)Cordoba Aeropuerto (AWS), Espagne (8410): visibility: 18.10.2017 07:00:00 - 24.10.2017 07:00:00 (CEST)
Date & Time tt [°C] td [°C] ff [km/h] ff [knt] dd ppp [hPa] vv [km]
24.10.2017 07:00:00 12,9 11,0 4 2 E 1023,3 -
24.10.2017 06:00:00 13,1 11,5 4 2 NE 1023,2 -
24.10.2017 05:00:00 13,7 11,9 2 1 ENE 1023,2 -
24.10.2017 04:00:00 14,4 12,3 0 0 N 1023,3 -
24.10.2017 03:00:00 14,8 12,7 0 0 N 1023,4 -
24.10.2017 02:00:00 15,0 12,7 4 2 NNE 1023,6 -
24.10.2017 01:00:00 16,1 13,0 0 0 N 1023,5 -
24.10.2017 00:00:00 17,1 13,2 0 0 N 1023,3 -
23.10.2017 23:00:00 17,9 13,2 0 0 N 1023,0 -
23.10.2017 22:00:00 18,4 12,2 0 0 N 1022,6 -
23.10.2017 21:00:00 19,9 11,6 0 0 N 1022,0 -
23.10.2017 20:00:00 22,9 11,6 0 0 N 1021,4 50
23.10.2017 19:00:00 27,3 9,3 0 0 N 1021,0 -
23.10.2017 18:00:00 27,9 9,4 5 3 E 1021,0 -
23.10.2017 17:00:00 28,0 10,2 8 4 ENE 1021,2 50
23.10.2017 16:00:00 27,2 11,2 9 5 ENE 1021,9 -
23.10.2017 15:00:00 25,9 11,3 9 5 E 1023,0 -
23.10.2017 14:00:00 24,2 11,5 8 4 E 1024,2 50
23.10.2017 13:00:00 23,0 11,4 16 9 E 1024,9 -
23.10.2017 12:00:00 21,2 10,8 13 7 E 1025,3 -
23.10.2017 11:00:00 19,0 11,5 15 8 E 1025,3 50
23.10.2017 10:00:00 17,5 11,5 5 3 E 1024,8 -
23.10.2017 09:00:00 13,6 10,8 0 0 N 1024,2 -
23.10.2017 08:00:00 13,6 11,1 8 4 ESE 1024,0 40
23.10.2017 07:00:00 14,1 11,1 9 5 E 1023,8 -
23.10.2017 06:00:00 14,4 11,4 5 3 ESE 1023,5 -
23.10.2017 05:00:00 14,3 11,4 5 3 E 1023,5 -
23.10.2017 04:00:00 14,5 11,8 4 2 ENE 1023,5 -
23.10.2017 03:00:00 14,8 12,7 4 2 E 1023,8 -
23.10.2017 02:00:00 15,1 12,8 4 2 NE 1024,0 -
23.10.2017 01:00:00 15,7 13,0 0 0 N 1023,9 -
23.10.2017 00:00:00 16,4 12,7 0 0 N 1023,7 -
22.10.2017 23:00:00 17,4 14,3 0 0 N 1023,2 -
22.10.2017 22:00:00 18,5 13,6 0 0 N 1022,8 -
22.10.2017 21:00:00 20,1 13,1 0 0 N 1022,3 -
22.10.2017 20:00:00 23,0 12,4 0 0 N 1022,1 20
22.10.2017 19:00:00 27,3 9,2 0 0 N 1021,6 -
22.10.2017 18:00:00 28,3 9,2 2 1 SE 1021,5 -
22.10.2017 17:00:00 28,5 9,2 4 2 SSE 1021,6 50
22.10.2017 16:00:00 27,5 8,7 2 1 ENE 1022,2 -
22.10.2017 15:00:00 27,0 10,2 9 5 E 1022,8 -
22.10.2017 14:00:00 25,9 12,3 16 9 E 1023,7 50
22.10.2017 13:00:00 24,2 12,7 16 9 ENE 1024,5 -
22.10.2017 12:00:00 23,1 13,8 16 9 E 1024,8 -
22.10.2017 11:00:00 20,6 14,4 4 2 E 1025,2 40
22.10.2017 10:00:00 16,7 14,2 0 0 N 1024,7 -
22.10.2017 09:00:00 14,5 13,4 0 0 N 1024,4 -
22.10.2017 08:00:00 13,9 12,6 0 0 N 1024,2 20
22.10.2017 07:00:00 14,5 13,2 0 0 N 1023,8 -
22.10.2017 06:00:00 15,3 13,8 0 0 N 1023,5 -
22.10.2017 05:00:00 15,9 13,7 0 0 N 1023,4 -
22.10.2017 04:00:00 16,7 14,0 0 0 N 1023,6 -
22.10.2017 03:00:00 19,3 13,9 2 1 NNW 1023,8 -
22.10.2017 02:00:00 20,3 14,0 9 5 N 1023,5 -
22.10.2017 01:00:00 19,3 15,0 0 0 N 1023,5 -
22.10.2017 00:00:00 21,5 14,2 9 5 NNW 1023,1 -
21.10.2017 23:00:00 22,3 14,2 13 7 NNE 1022,9 -
21.10.2017 22:00:00 23,2 13,7 8 4 NE 1022,6 -
21.10.2017 21:00:00 22,7 14,1 5 3 NE 1022,4 -
21.10.2017 20:00:00 23,5 17,3 4 2 W 1021,6 40
21.10.2017 19:00:00 26,7 15,6 0 0 N 1021,1 -
21.10.2017 18:00:00 26,6 15,3 0 0 N 1021,2 -
21.10.2017 17:00:00 27,5 16,0 4 2 W 1021,4 50
21.10.2017 16:00:00 27,6 16,0 2 1 ENE 1022,0 -
21.10.2017 15:00:00 26,7 16,1 8 4 S 1022,7 -
21.10.2017 14:00:00 25,7 16,3 8 4 E 1023,5 40
21.10.2017 13:00:00 23,9 15,9 5 3 E 1024,6 -
21.10.2017 12:00:00 22,0 15,5 11 6 ENE 1025,0 -
21.10.2017 11:00:00 20,4 15,1 15 8 ENE 1025,0 40
21.10.2017 10:00:00 17,5 14,9 9 5 E 1024,7 -
21.10.2017 09:00:00 16,9 14,9 8 4 E 1024,1 -
21.10.2017 08:00:00 16,6 14,8 0 0 N 1023,8 30
21.10.2017 07:00:00 15,9 14,4 4 2 NE 1023,5 -
21.10.2017 06:00:00 15,8 14,3 2 1 E 1023,1 -
21.10.2017 05:00:00 16,0 14,5 4 2 E 1022,7 -
21.10.2017 04:00:00 16,2 14,9 8 4 E 1022,9 -
21.10.2017 03:00:00 16,3 14,8 4 2 E 1023,3 -
21.10.2017 02:00:00 16,9 15,1 4 2 E 1022,9 -
21.10.2017 01:00:00 17,2 15,4 5 3 E 1023,0 -
21.10.2017 00:00:00 17,8 15,8 0 0 N 1023,1 -
20.10.2017 23:00:00 18,1 15,7 4 2 ENE 1022,9 -
20.10.2017 22:00:00 18,8 15,8 0 0 N 1022,4 -
20.10.2017 21:00:00 20,4 16,0 0 0 N 1022,0 -
20.10.2017 20:00:00 21,9 15,7 0 0 N 1021,4 40
20.10.2017 19:00:00 24,2 14,9 4 2 E 1020,6 -
20.10.2017 18:00:00 25,8 14,3 0 0 N 1020,5 -
20.10.2017 17:00:00 24,7 14,9 5 3 E 1020,8 40
20.10.2017 16:00:00 24,4 14,8 8 4 E 1021,0 -
20.10.2017 15:00:00 24,7 14,5 4 2 E 1021,2 -
20.10.2017 14:00:00 23,9 15,1 4 2 SE 1021,8 40
20.10.2017 13:00:00 21,4 14,8 0 0 N 1022,6 -
20.10.2017 12:00:00 21,3 14,2 0 0 N 1022,4 -
20.10.2017 11:00:00 20,0 14,4 0 0 N 1021,8 40
20.10.2017 10:00:00 17,5 14,2 0 0 N 1021,5 -
20.10.2017 09:00:00 15,0 13,4 0 0 N 1021,0 -
20.10.2017 08:00:00 14,8 13,3 4 2 SE 1020,4 40
20.10.2017 07:00:00 14,1 12,8 0 0 N 1019,9 -
20.10.2017 06:00:00 13,7 12,3 0 0 N 1019,9 -
20.10.2017 05:00:00 13,9 12,3 0 0 N 1019,4 -
20.10.2017 04:00:00 14,5 12,4 0 0 N 1019,5 -
20.10.2017 03:00:00 15,2 12,9 4 2 SW 1019,4 -
20.10.2017 02:00:00 14,6 12,6 4 2 W 1019,0 -
20.10.2017 01:00:00 15,0 13,0 4 2 SW 1019,1 -
20.10.2017 00:00:00 15,5 13,0 5 3 WSW 1018,6 -
19.10.2017 23:00:00 16,1 12,8 0 0 N 1018,0 -
19.10.2017 22:00:00 17,0 11,9 0 0 N 1017,5 -
19.10.2017 21:00:00 18,1 12,2 0 0 N 1016,5 -
19.10.2017 20:00:00 18,9 12,9 4 2 W 1015,9 -
19.10.2017 19:00:00 21,6 13,5 9 5 WSW 1014,8 -
19.10.2017 18:00:00 22,4 13,8 16 9 WSW 1014,0 -
19.10.2017 17:00:00 21,6 12,1 15 8 WSW 1013,8 50
19.10.2017 16:00:00 20,9 11,6 15 8 SW 1013,9 -
19.10.2017 15:00:00 21,3 14,0 18 10 WSW 1014,2 -
19.10.2017 14:00:00 21,2 13,4 8 4 SW 1014,7 50
19.10.2017 13:00:00 20,7 13,0 5 3 SSE 1014,9 -
19.10.2017 12:00:00 19,7 12,9 5 3 E 1014,9 -
19.10.2017 11:00:00 17,2 14,0 5 3 E 1014,5 40
19.10.2017 10:00:00 15,3 13,5 11 6 E 1014,0 -
19.10.2017 09:00:00 14,7 13,2 15 8 ENE 1013,1 -
19.10.2017 08:00:00 14,8 13,5 5 3 E 1012,6 40
19.10.2017 07:00:00 15,0 13,2 9 5 ENE 1012,2 -
19.10.2017 06:00:00 15,5 14,4 2 1 E 1011,7 -
19.10.2017 05:00:00 15,6 14,3 4 2 NNE 1011,5 -
19.10.2017 04:00:00 16,1 14,5 0 0 N 1012,3 -
19.10.2017 03:00:00 16,2 14,4 5 3 W 1012,8 -
19.10.2017 02:00:00 16,8 15,1 8 4 W 1012,9 -
19.10.2017 01:00:00 17,0 15,5 9 5 W 1013,4 -
19.10.2017 00:00:00 17,0 15,3 11 6 WSW 1013,8 -
18.10.2017 23:00:00 17,5 15,7 13 7 SW 1013,9 -
18.10.2017 22:00:00 17,2 14,7 4 2 SW 1013,6 -
18.10.2017 21:00:00 17,3 14,2 8 4 SW 1013,5 -
18.10.2017 20:00:00 18,4 13,9 8 4 SW 1012,9 20
18.10.2017 19:00:00 19,2 13,8 8 4 WSW 1013,0 -
18.10.2017 18:00:00 20,4 13,5 21 11 WSW 1012,8 -
18.10.2017 17:00:00 20,1 12,8 15 8 WSW 1012,9 30
18.10.2017 16:00:00 19,1 13,5 18 10 W 1013,6 -
18.10.2017 15:00:00 19,8 14,6 9 5 SW 1013,7 -
18.10.2017 14:00:00 18,7 14,7 11 6 WSW 1014,5 20
18.10.2017 13:00:00 18,1 15,2 18 10 W 1015,2 -
18.10.2017 12:00:00 17,3 15,5 13 7 WSW 1015,2 -
18.10.2017 11:00:00 16,2 14,7 15 8 W 1015,6 10
18.10.2017 10:00:00 16,2 14,7 11 6 SSW 1014,8 -
18.10.2017 09:00:00 16,7 15,6 11 6 WSW 1014,7 -
18.10.2017 08:00:00 16,9 15,4 9 5 SW 1014,1 15
18.10.2017 07:00:00 - - - - - - -

tt = Température de l'air
td = dewpoint
ff = Vitesse du vent
dd = Direction du vent
ppp = reduced air pressure
vv = visibility

stations d'obs. à proximité